Preview of NWS' New Version of Forecast
This preview is not operational and should not be used for support decisions.

Regional Weather Roundup (RWR)

Issued by National Weather Service (NWS)

                            
000
ASUS43 KDMX 230706
RWRIA 

WEATHER ROUNDUP FOR IOWA
NATIONAL WEATHER SERVICE DES MOINES IA
100 AM CST SAT FEB 23 2019

NOTE: "FAIR" INDICATES FEW OR NO CLOUDS BELOW 12,000 FEET WITH NO
SIGNIFICANT WEATHER AND/OR OBSTRUCTIONS TO VISIBILITY.

* - THESE STATIONS ARE NOT NWS STATIONS...THUS NOT UNDER NWS
QUALITY CONTROL.  THEY ALSO DO NOT REPORT WEATHER SUCH 
AS PRECIPITATION OR FOG.  

IAZ001>003-012>014-020>022-031>034-043>046-230800-
   NORTHWEST IOWA
  
CITY           SKY/WX    TMP DP  RH WIND       PRES   REMARKS
CARROLL *      FOG       30  30 100 SE12      30.01S VSB 1   WCI  21  
CHEROKEE *     LGT SNOW  28  28 100 E6        30.02F WCI  21          
DENISON *      CLOUDY    30  30 100 SE7       30.01S FOG     WCI  23  
LE MARS *      LGT SNOW  27  27 100 NE6       30.01F WCI  20          
ORANGE CITY *  LGT SNOW  25  25 100 E6        30.01F WCI  18          
SHELDON *      LGT SNOW  25  25 100 E9        30.00F WCI  15          
SIOUX CITY     CLOUDY    27  25  92 E6        30.00F FOG     WCI  20  
SPENCER        LGT SNOW  27  24  89 E6        30.04F FOG     WCI  20  
STORM LAKE *   FOG       28  28 100 E14       30.00F VSB 1   WCI  17  
$$
 
IAZ055>058-069>071-079>083-090>094-230800-
   SOUTHWEST IOWA
  
CITY           SKY/WX    TMP DP  RH WIND       PRES   REMARKS
ATLANTIC *     CLOUDY    30  30 100 E8        29.98F FOG     WCI  23  
AUDUBON *      LGT SNOW  28  27  93 CALM      30.00F                  
CLARINDA *     CLOUDY    34  32  93 NE3       29.99F                  
COUNCIL BLFS * FOG       30  30 100 E7        29.96F VSB 1   WCI  23  
CRESTON *      CLOUDY    34  34 100 E3        29.99S FOG              
HARLAN  *      CLOUDY    28  28 100 E9        29.99F FOG     WCI  20  
LAMONI         RAIN      34  32  92 SE10      29.95F FOG     WCI  26  
RED OAK *      CLOUDY    34  34 100 NE7       29.97F FOG     WCI  28  
SHENANDOAH *   CLOUDY    34  34 100 E5        29.98F FOG     WCI  30  
$$
 
IAZ047>049-059>061-072>074-084-230800-
   CENTRAL IOWA
  
CITY           SKY/WX    TMP DP  RH WIND       PRES   REMARKS
AMES           CLOUDY    32  29  88 E7        30.03F FOG     WCI  26  
ANKENY *       CLOUDY    32  30  93 E7        30.02F FOG     WCI  26  
BOONE *        CLOUDY    32  32 100 E10       30.02R FOG     WCI  24  
CHARITON *     MIX PCPN  34  34 100 SE18      29.96F WCI  23          
DES MOINES     DRIZZLE   32  30  92 E3        30.00F FOG              
GRINNELL*      LGT RAIN  33  32  96 E12       30.02F WCI  24          
KNOXVILLE *    LGT RAIN  34  34 100 SE8       30.00F WCI  27          
MARSHALLTOWN   MIX PCPN  32  32 100 E13       30.02R FOG     WCI  22  
NEWTON *       MIX PCPN  34  34 100 SE14G20   30.01S WCI  24          
PELLA *        RAIN      34  32  93 SE12      30.03S WCI  25          
PERRY *        CLOUDY    29  29  99 NE5       30.02S FOG     WCI  24  
$$
 
IAZ004>006-015-016-023>025-035-036-230800-
   NORTH CENTRAL IOWA
  
CITY           SKY/WX    TMP DP  RH WIND       PRES   REMARKS
ALGONA *       CLOUDY    28  28 100 E12G17    30.02F FOG     WCI  18  
CLARION *      CLOUDY    32  32 100 E18       30.02F FOG     WCI  20  
ESTHERVILLE    LGT SNOW  26  25  96 E8        30.04F FOG     WCI  18  
FORT DODGE *   LGT SNOW  31  29  92 SE10      30.03F FOG     WCI  22  
MASON CITY     FRZ RAIN  30  28  92 E17       30.07R FOG     WCI  18  
FOREST CITY *  LGT SNOW  32  30  93 E10       30.06S WCI  24          
IOWA FALLS *   MIX PCPN  32  31  95 E13       30.05F WCI  22          
$$

IAZ007>011-017>019-026>030-037>042-050>054-066-230800-
   NORTHEAST IOWA
  
CITY           SKY/WX    TMP DP  RH WIND       PRES   REMARKS
CEDAR RAPIDS   CLOUDY    32  31  96 E20       30.03F FOG     WCI  20  
CHARLES CITY * CLOUDY    30  27  86 E18G24    30.07F FOG     WCI  18  
CLINTON *      LGT RAIN  33  29  85 E15       30.11F WCI  23          
DECORAH *      LGT SNOW  28  28 100 E16G23    30.10F WCI  17          
DUBUQUE        LGT RAIN  33  26  75 E14       30.12F WCI  23          
OELWEIN *      CLOUDY    32  28  86 E18       30.07F WCI  20          
WATERLOO       CLOUDY    33  27  78 E16       30.05F HAZE    WCI  23  
$$
 
IAZ064-065-067-068-078-230800-
   EAST CENTRAL IOWA
  
CITY           SKY/WX    TMP DP  RH WIND       PRES   REMARKS
DAVENPORT      LGT RAIN  34  29  82 E13G22    30.11F WCI  25          
IOWA CITY      LGT RAIN  34  32  92 E9        30.07F FOG     WCI  27  
MT. PLEASANT * RAIN      36  36 100 SE12      30.03F WCI  27          
MUSCATINE *    MIX PCPN  36  32  87 E5        30.08F WCI  32          
QUAD CITIES    CLOUDY    36  31  82 E12       30.08F HAZE    WCI  28  
$$
 
IAZ062-063-075>077-085>089-095>099-230800-
   SOUTHEAST IOWA
  
CITY           SKY/WX    TMP DP  RH WIND       PRES   REMARKS
BURLINGTON     CLOUDY    35  31  85 E12       30.03F FOG     WCI  27  
FAIRFIELD *    FOG       34  34 100 SE12      30.01F VSB 1   WCI  25  
FORT MADISON * LGT RAIN  36  36 100 E10G17    30.04F WCI  28          
KEOKUK *       CLOUDY    36  34  93 E9        30.02F FOG     WCI  29  
OSKALOOSA *    DRIZZLE   33  32  98 SE10      30.02S WCI  25          
OTTUMWA        CLOUDY    34  33  96 SE12      30.00F FOG     WCI  25  
WASHINGTON *   CLOUDY    34  34 100 E13       30.05F FOG     WCI  25  
$$

ABBREVIATIONS USED IN REMARKS
   TC - TEMPERATURES IN CELSIUS
  WCI - WIND CHILL INDEX
   HX - HEAT INDEX
  VSB - VISIBILITY  
$$